Regional Weather Roundup
Issued by NWS

Home | Current Version | Previous Version | Graphics & Text | Print | Product List | Glossary On
Versions: 1 2 3 4 5 6 7 8 9 10 11 12 13 14 15 16 17 18 19 20 21 22 23 24 25 26 27 28 29 30 31 32 33 34 35 36 37 38 39 40 41 42 43 44 45 46 47 48 49 50
000
ASUS45 KSLC 022110
RWRUT

UTAH REGIONAL WEATHER ROUNDUP
NATIONAL WEATHER SERVICE SALT LAKE CITY UT
300 PM MDT SAT MAY 02 2015

UTZ001>011-023>025-022200-

NORTHERN UTAH

CITY           SKY/WX    TMP DP  RH WIND       PRES   REMARKS
BRIGHAM CITY   PTSUNNY   75  30  19 CALM      29.89F
HILL AFB       MOSUNNY   77  37  23 W8G17     29.89F
LOGAN          PTSUNNY   70  33  25 SW21      29.90F
OGDEN          SUNNY     78  32  18 W7G23     29.87F
PROVO AIRPORT  PTSUNNY   77  41  27 SW10      29.90F
SALT LAKE CITY PTSUNNY   81  30  15 NW8       29.85F
VERNAL         CLOUDY    69  31  24 VRB3      29.95F
WENDOVER       PTSUNNY   81  28  15 NW6       29.85F
HEBER CITY     PTSUNNY   73  27  17 SW24G30   29.94F
WEST JORDAN    MOSUNNY   79  37  22 SW6       29.88F

$$

UTZ012>022-026-027-022200-

SOUTHERN/CENTRAL UTAH

CITY           SKY/WX    TMP DP  RH WIND       PRES   REMARKS
BLANDING       MOSUNNY   77  21  12 W16G23    30.06F
BRYCE CANYON   PTSUNNY   66  19  16 SW17G26   30.12F
CEDAR CITY     PTSUNNY   74  20  13 SW15G25   29.99F
DELTA          MOSUNNY   80  22  11 SW20      29.92F
HANKSVILLE     MOSUNNY   84  23  10 S10G18    29.89F
MILFORD        MOSUNNY   81  24  12 SW23G35   29.93F
MOAB/CYNLANDS  SUNNY     83  20   9 S7G18     29.87F
PRICE          MOSUNNY   79  22  12 SW15G24   29.95F
ST GEORGE      MOCLDY    88  28  11 W8        29.85F
KANAB          PTSUNNY   77  27  15 S7        30.01F

$$

REGIONAL REPORTS     COLORADO/ARIZONA

CITY           SKY/WX    TMP DP  RH WIND       PRES   REMARKS
CRAIG, CO      PTSUNNY   70  32  24 W21G30    29.96F
GRAND JUNCTION MOSUNNY   78  35  21 SW5       29.90F
RIFLE          PTSUNNY   74  31  20 N17G25    29.95S
MONTROSE       PTSUNNY   74  25  16 S8G16     29.99F
CORTEZ         SUNNY     80  19  10 W16G25    30.01F
PAGE, AZ       NOT AVBL
GRAND CANYON   PTSUNNY   70  21  15 VRB5      30.08F
KINGMAN        MOSUNNY   88  25  10 SW20G31   29.91F
FLAGSTAFF      MOSUNNY   70  19  14 S12G21    30.10F

$$

REGIONAL REPORTS    NEVADA/IDAHO/WYOMING

CITY           SKY/WX    TMP DP  RH WIND       PRES   REMARKS
LAS VEGAS, NV  MOSUNNY   91  27  10 S16G23    29.76F
ELY            MOSUNNY   75  20  12 S16G24    29.98F
ELKO           MOSUNNY   79  26  14 W13G20    29.88F
POCATELLO, ID  MOSUNNY   81  24  12 W24G32    29.84F
BURLEY         MOSUNNY   79  31  17 W10G22    29.83F
EVANSTON, WY   MOSUNNY   71  25  17 W23G37    30.01F
ROCK SPRINGS   CLOUDY    61  32  33 W29G40    29.99F
KEMMERER       CLOUDY    64  27  24 W25G35    30.02F

$$


USA.gov is the U.S. government's official web portal to all federal, state and local government web resources and services.